Location: Eitze
(52.9840°N, 9.6894°E)
Time: 16:56:13
(UTC+00:00)

SL-16 R/B - Pass Details

Date: 19 May 2025
Orbit: 841 x 844 km, 71.0° (Epoch: 17 June)

Event Time Altitude Azimuth Distance (km) Brightness Sun altitude
Rises 20:55:59 0° 328° (NNW) 3,415 7.7 -10.9°
Reaches altitude 10° 20:58:41 10° 338° (NNW) 2,477 6.1 -11.1°
Maximum altitude 21:03:51 35° 43° (NE) 1,354 3.4 -11.5°
Drops below altitude 10° 21:08:59 10° 108° (ESE) 2,467 4.2 -11.9°
Enters shadow 21:09:28 - 110° (ESE) 2,626 4.3 -11.9°
